| time (UTC) | temp C | wind direction | speed KPH | gust KPH | rain 1hr cm | rain 24hr cm | rain mn cm | humidity % | barometer mb |
| 20260510161004 | 8 | 335 | 3.2 | 8.0 | 0.00 | 0.00 | 0.00 | 50 | 1017.0 |
| 20260510155003 | 9 | 15 | 6.4 | 16.1 | 0.00 | 0.00 | 0.00 | 49 | 1017.0 |
| 20260510154003 | 8 | 324 | 4.8 | 16.1 | 0.00 | 0.00 | 0.00 | 49 | 1016.7 |
| 20260510153004 | 8 | 261 | 9.7 | 22.5 | 0.00 | 0.00 | 0.00 | 50 | 1016.6 |
| 20260510151003 | 8 | 269 | 9.7 | 24.1 | 0.00 | 0.00 | 0.00 | 51 | 1016.7 |
| 20260510150004 | 8 | 230 | 8.0 | 19.3 | 0.00 | 0.00 | 0.00 | 52 | 1016.6 |
| 20260510145004 | 7 | 274 | 8.0 | 14.5 | 0.00 | 0.00 | 0.00 | 55 | 1016.5 |
| 20260510144004 | 7 | 266 | 4.8 | 11.3 | 0.00 | 0.00 | 0.00 | 56 | 1016.7 |
| 20260510143003 | 6 | 294 | 4.8 | 16.1 | 0.00 | 0.00 | 0.00 | 59 | 1016.8 |
| 20260510142004 | 6 | 356 | 4.8 | 9.7 | 0.00 | 0.00 | 0.00 | 61 | 1016.5 |
| 20260510141004 | 5 | 326 | 3.2 | 8.0 | 0.00 | 0.00 | 0.00 | 64 | 1016.8 |
| 20260510140004 | 5 | 294 | 4.8 | 9.7 | 0.00 | 0.00 | 0.00 | 65 | 1016.6 |
| 20260510135004 | 5 | 301 | 4.8 | 9.7 | 0.00 | 0.00 | 0.00 | 65 | 1016.5 |
| 20260510133004 | 4 | 313 | 1.6 | 4.8 | 0.00 | 0.00 | 0.00 | 67 | 1016.6 |
| 20260510131004 | 4 | 339 | 4.8 | 11.3 | 0.00 | 0.00 | 0.00 | 66 | 1016.4 |
| 20260510130004 | 4 | 283 | 1.6 | 8.0 | 0.00 | 0.00 | 0.00 | 67 | 1016.3 |
| 20260510125004 | 4 | 298 | 1.6 | 4.8 | 0.00 | 0.00 | 0.00 | 67 | 1016.3 |
| 20260510121003 | 2 | 280 | 3.2 | 8.0 | 0.00 | 0.00 | 0.00 | 72 | 1016.0 |
| 20260510120004 | 0 | 53 | 0.0 | 3.2 | 0.00 | 0.00 | 0.00 | 78 | 1015.9 |
| 20260510115004 | 0 | 312 | 1.6 | 3.2 | 0.00 | 0.00 | 0.00 | 80 | 1015.8 |
| 20260510114003 | -1 | 290 | 1.6 | 3.2 | 0.00 | 0.00 | 0.00 | 83 | 1015.9 |
| 20260510113004 | -2 | 304 | 1.6 | 3.2 | 0.00 | 0.00 | 0.00 | 85 | 1015.7 |
| 20260510112004 | -2 | 344 | 1.6 | 1.6 | 0.00 | 0.00 | 0.00 | 86 | 1015.6 |
| 20260510111004 | -2 | 338 | 0.0 | 1.6 | 0.00 | 0.00 | 0.00 | 86 | 1015.6 |
| 20260510105003 | -2 | 325 | 1.6 | 3.2 | 0.00 | 0.00 | 0.00 | 86 | 1015.4 |
| 20260510104004 | -2 | 297 | 0.0 | 1.6 | 0.00 | 0.00 | 0.00 | 85 | 1015.5 |
| 20260510103004 | -2 | 318 | 0.0 | 1.6 | 0.00 | 0.00 | 0.00 | 84 | 1015.1 |
| 20260510102003 | -2 | 309 | 0.0 | 1.6 | 0.00 | 0.00 | 0.00 | 83 | 1015.1 |
| 20260510101004 | -2 | 304 | 0.0 | 3.2 | 0.00 | 0.00 | 0.00 | 82 | 1015.0 |
| 20260510094004 | -2 | 311 | 0.0 | 1.6 | 0.00 | 0.00 | 0.00 | 82 | 1014.8 |
| 20260510093004 | -2 | 270 | 1.6 | 3.2 | 0.00 | 0.00 | 0.00 | 79 | 1014.6 |
| 20260510092003 | -1 | 295 | 1.6 | 3.2 | 0.00 | 0.00 | 0.00 | 78 | 1014.7 |
| 20260510091003 | -1 | 289 | 1.6 | 3.2 | 0.00 | 0.00 | 0.00 | 78 | 1014.5 |
| 20260510085004 | 0 | 298 | 0.0 | 3.2 | 0.00 | 0.00 | 0.00 | 75 | 1014.4 |
| 20260510084003 | 0 | 308 | 1.6 | 4.8 | 0.00 | 0.00 | 0.00 | 73 | 1014.4 |
| 20260510083004 | 0 | 308 | 1.6 | 3.2 | 0.00 | 0.00 | 0.00 | 73 | 1014.2 |
| 20260510082004 | 0 | 296 | 1.6 | 3.2 | 0.00 | 0.00 | 0.00 | 75 | 1014.1 |
| 20260510080004 | -1 | 299 | 1.6 | 3.2 | 0.00 | 0.00 | 0.00 | 74 | 1014.0 |
| 20260510075003 | 0 | 335 | 1.6 | 3.2 | 0.00 | 0.00 | 0.00 | 72 | 1014.0 |
| 20260510074004 | 0 | 337 | 1.6 | 3.2 | 0.00 | 0.00 | 0.00 | 72 | 1013.7 |
| 20260510072004 | 0 | 340 | 1.6 | 3.2 | 0.00 | 0.00 | 0.00 | 71 | 1013.6 |
| 20260510071004 | 0 | 328 | 1.6 | 4.8 | 0.00 | 0.00 | 0.00 | 68 | 1013.4 |
| 20260510070004 | 0 | 277 | 1.6 | 4.8 | 0.00 | 0.00 | 0.00 | 70 | 1013.4 |
| 20260510065004 | 0 | 44 | 0.0 | 8.0 | 0.00 | 0.00 | 0.00 | 69 | 1013.5 |
| 20260510064004 | -1 | 357 | 1.6 | 3.2 | 0.00 | 0.00 | 0.00 | 74 | 1013.2 |
| 20260510063003 | -1 | 327 | 1.6 | 3.2 | 0.00 | 0.00 | 0.00 | 71 | 1013.3 |
| 20260510062004 | -1 | 291 | 0.0 | 3.2 | 0.00 | 0.00 | 0.00 | 71 | 1013.2 |
| 20260510060004 | -1 | 303 | 0.0 | 1.6 | 0.00 | 0.00 | 0.00 | 68 | 1012.9 |
| 20260510055004 | -1 | 312 | 1.6 | 3.2 | 0.00 | 0.00 | 0.00 | 68 | 1013.0 |
| 20260510054004 | 0 | 321 | 1.6 | 1.6 | 0.00 | 0.00 | 0.00 | 67 | 1012.9 |
| 20260510053004 | -1 | 327 | 0.0 | 3.2 | 0.00 | 0.00 | 0.00 | 67 | 1012.7 |
| 20260510052003 | 0 | 0 | 0.0 | 1.6 | 0.00 | 0.00 | 0.00 | 66 | 1012.7 |
| 20260510051005 | 0 | 16 | 0.0 | 3.2 | 0.00 | 0.00 | 0.00 | 65 | 1012.8 |
| 20260510050004 | 0 | 287 | 0.0 | 3.2 | 0.00 | 0.00 | 0.00 | 63 | 1012.7 |
| 20260510045004 | 0 | 310 | 0.0 | 1.6 | 0.00 | 0.00 | 0.00 | 62 | 1012.7 |
| 20260510043004 | 1 | 6 | 1.6 | 3.2 | 0.00 | 0.00 | 0.00 | 60 | 1012.7 |
| 20260510042005 | 1 | 334 | 0.0 | 1.6 | 0.00 | 0.00 | 0.00 | 58 | 1012.5 |
| 20260510041004 | 1 | 2 | 0.0 | 1.6 | 0.00 | 0.00 | 0.00 | 57 | 1012.4 |
| 20260510040004 | 2 | 340 | 0.0 | 1.6 | 0.00 | 0.00 | 0.00 | 55 | 1012.3 |
| 20260510035003 | 2 | 346 | 0.0 | 1.6 | 0.00 | 0.00 | 0.00 | 54 | 1012.4 |
| 20260510034003 | 3 | 317 | 0.0 | 3.2 | 0.00 | 0.00 | 0.00 | 52 | 1012.4 |
| 20260510032004 | 2 | 29 | 1.6 | 3.2 | 0.00 | 0.00 | 0.00 | 54 | 1012.0 |
| 20260510031004 | 2 | 16 | 1.6 | 3.2 | 0.00 | 0.00 | 0.00 | 56 | 1012.0 |
| 20260510030004 | 2 | 327 | 1.6 | 3.2 | 0.00 | 0.00 | 0.00 | 53 | 1012.0 |
| 20260510025004 | 3 | 348 | 0.0 | 3.2 | 0.00 | 0.00 | 0.00 | 52 | 1012.0 |
| 20260510024004 | 3 | 2 | 0.0 | 3.2 | 0.00 | 0.00 | 0.00 | 51 | 1011.6 |
| 20260510023004 | 3 | 44 | 0.0 | 1.6 | 0.00 | 0.00 | 0.00 | 49 | 1011.7 |
| 20260510022004 | 4 | 317 | 0.0 | 3.2 | 0.00 | 0.00 | 0.00 | 47 | 1011.7 |
| 20260510021004 | 5 | 336 | 0.0 | 1.6 | 0.00 | 0.00 | 0.00 | 46 | 1011.4 |
| 20260510020004 | 5 | 0 | 1.6 | 3.2 | 0.00 | 0.00 | 0.00 | 44 | 1011.5 |
| 20260510015004 | 6 | 28 | 1.6 | 3.2 | 0.00 | 0.00 | 0.00 | 43 | 1011.0 |
| 20260510014004 | 6 | 28 | 1.6 | 8.0 | 0.00 | 0.00 | 0.00 | 42 | 1011.1 |
| 20260510013006 | 7 | 3 | 1.6 | 11.3 | 0.00 | 0.00 | 0.00 | 40 | 1010.6 |
| 20260510012004 | 7 | 300 | 4.8 | 11.3 | 0.00 | 0.00 | 0.00 | 39 | 1010.7 |
| 20260510005004 | 8 | 51 | 3.2 | 25.7 | 0.00 | 0.00 | 0.00 | 38 | 1010.3 |
| 20260510004004 | 8 | 306 | 4.8 | 19.3 | 0.00 | 0.00 | 0.00 | 39 | 1009.9 |
| 20260510003004 | 8 | 331 | 11.3 | 25.7 | 0.00 | 0.00 | 0.00 | 38 | 1010.0 |
| 20260510002003 | 9 | 309 | 12.9 | 32.2 | 0.00 | 0.00 | 0.00 | 39 | 1009.6 |
| 20260510001004 | 10 | 352 | 9.7 | 27.4 | 0.00 | 0.00 | 0.00 | 38 | 1009.5 |
| 20260510000004 | 11 | 27 | 6.4 | 27.4 | 0.00 | 0.00 | 0.00 | 39 | 1009.5 |
| 20260509235004 | 10 | 339 | 6.4 | 16.1 | 0.00 | 0.00 | 0.00 | 40 | 1009.1 |
| 20260509233004 | 10 | 350 | 4.8 | 19.3 | 0.00 | 0.00 | 0.00 | 40 | 1008.4 |
| 20260509232004 | 10 | 3 | 6.4 | 16.1 | 0.00 | 0.00 | 0.00 | 38 | 1008.1 |
| 20260509231003 | 11 | 14 | 4.8 | 11.3 | 0.00 | 0.00 | 0.00 | 39 | 1008.0 |
| 20260509230003 | 11 | 356 | 3.2 | 19.3 | 0.00 | 0.00 | 0.00 | 38 | 1007.7 |
| 20260509225003 | 12 | 322 | 8.0 | 24.1 | 0.00 | 0.00 | 0.00 | 35 | 1007.6 |
| 20260509224005 | 13 | 317 | 8.0 | 16.1 | 0.00 | 0.00 | 0.00 | 33 | 1007.5 |
| 20260509223004 | 12 | 324 | 4.8 | 24.1 | 0.00 | 0.00 | 0.00 | 34 | 1007.1 |
| 20260509222004 | 12 | 322 | 6.4 | 35.4 | 0.00 | 0.00 | 0.00 | 33 | 1006.9 |
| 20260509221003 | 13 | 341 | 8.0 | 29.0 | 0.00 | 0.00 | 0.00 | 32 | 1006.9 |
| 20260509215004 | 13 | 13 | 6.4 | 33.8 | 0.00 | 0.00 | 0.00 | 32 | 1006.5 |
| 20260509213004 | 13 | 10 | 4.8 | 16.1 | 0.00 | 0.00 | 0.00 | 31 | 1005.9 |
| 20260509212004 | 13 | 348 | 9.7 | 27.4 | 0.00 | 0.00 | 0.00 | 30 | 1005.7 |
| 20260509211003 | 13 | 0 | 8.0 | 25.7 | 0.00 | 0.00 | 0.00 | 29 | 1005.5 |
| 20260509210004 | 15 | 319 | 9.7 | 20.9 | 0.00 | 0.00 | 0.00 | 29 | 1005.4 |
| 20260509203004 | 13 | 309 | 9.7 | 25.7 | 0.00 | 0.00 | 0.00 | 30 | 1005.0 |
| 20260509202004 | 14 | 325 | 9.7 | 40.2 | 0.00 | 0.00 | 0.00 | 30 | 1004.9 |
| 20260509201004 | 15 | 347 | 4.8 | 22.5 | 0.00 | 0.00 | 0.00 | 28 | 1004.5 |
| 20260509200004 | 14 | 353 | 8.0 | 37.0 | 0.00 | 0.00 | 0.00 | 29 | 1004.5 |
| 20260509195004 | 14 | 281 | 17.7 | 25.7 | 0.00 | 0.00 | 0.00 | 28 | 1003.9 |
| 20260509194003 | 13 | 323 | 9.7 | 24.1 | 0.00 | 0.00 | 0.00 | 30 | 1004.1 |
| 20260509193004 | 13 | 323 | 6.4 | 25.7 | 0.00 | 0.00 | 0.00 | 29 | 1003.7 |
| 20260509192004 | 13 | 291 | 11.3 | 33.8 | 0.00 | 0.00 | 0.00 | 30 | 1003.5 |
| 20260509191004 | 15 | 324 | 12.9 | 25.7 | 0.00 | 0.00 | 0.00 | 29 | 1003.5 |
| 20260509190004 | 13 | 354 | 11.3 | 27.4 | 0.00 | 0.00 | 0.00 | 31 | 1003.4 |
| 20260509185004 | 13 | 308 | 8.0 | 25.7 | 0.00 | 0.00 | 0.00 | 30 | 1003.2 |
| 20260509181004 | 14 | 327 | 4.8 | 20.9 | 0.00 | 0.00 | 0.00 | 32 | 1002.7 |
| 20260509180004 | 13 | 331 | 4.8 | 22.5 | 0.00 | 0.00 | 0.00 | 34 | 1002.9 |
| 20260509175003 | 15 | 355 | 3.2 | 29.0 | 0.00 | 0.00 | 0.00 | 31 | 1002.6 |
| 20260509174004 | 13 | 294 | 14.5 | 25.7 | 0.00 | 0.00 | 0.00 | 32 | 1002.8 |
| 20260509173003 | 13 | 282 | 4.8 | 24.1 | 0.00 | 0.00 | 0.00 | 32 | 1002.3 |
| 20260509172003 | 14 | 330 | 8.0 | 20.9 | 0.00 | 0.00 | 0.00 | 31 | 1002.1 |
| 20260509171004 | 13 | 299 | 4.8 | 27.4 | 0.00 | 0.00 | 0.00 | 32 | 1002.2 |
| 20260509165004 | 14 | 345 | 4.8 | 14.5 | 0.00 | 0.00 | 0.00 | 31 | 1001.8 |
| 20260509164004 | 12 | 337 | 8.0 | 19.3 | 0.00 | 0.00 | 0.00 | 34 | 1001.8 |
| 20260509163004 | 13 | 305 | 3.2 | 24.1 | 0.00 | 0.00 | 0.00 | 33 | 1001.8 |
| 20260509162003 | 12 | 341 | 8.0 | 25.7 | 0.00 | 0.00 | 0.00 | 34 | 1001.7 |